Location: Croisilles
(50.1998°N, 2.8793°E)
Time: 03:13:45
(UTC+00:00)

Cosmos 1626 - Pass Details

Date: 21 January 2021
Orbit: 489 x 494 km, 82.5° (Epoch: 24 February)

Event Time Altitude Azimuth Distance (km) Brightness Sun altitude
Rises 17:49:58 0° 216° (SW) 2,567 6.6 -13.5°
Reaches altitude 10° 17:52:17 10° 229° (SW) 1,690 5.8 -13.8°
Maximum altitude 17:55:29 27° 289° (WNW) 975 4.2 -14.3°
Drops below altitude 10° 17:58:43 10° 349° (N) 1,700 4.8 -14.8°
Sets 18:01:04 0° 2° (N) 2,587 5.6 -15.2°
